Regional Weather Roundup
Issued by NWS Cleveland, OH

Home | Current Version | Previous Version | Text Only | Print | Product List | Glossary On
Versions: 1 2 3 4 5 6 7 8 9 10 11 12 13 14 15 16 17 18 19 20 21 22 23 24 25 26 27 28 29 30 31 32 33 34 35 36 37 38 39 40 41 42 43 44 45 46 47 48 49 50
000
ASUS41 KCLE 271612
RWRCLE
OHIO REGIONAL WEATHER ROUNDUP
NATIONAL WEATHER SERVICE WILMINGTON, OH
1200 PM EDT WED JUL 27 2016

NOTE: "FAIR" INDICATES FEW OR NO CLOUDS BELOW 12,000 FEET WITH NO
SIGNIFICANT WEATHER AND/OR OBSTRUCTIONS TO VISIBILITY.

OHZ001>008-015>018-024>027-034-035-043-044-271700-
   NORTHWEST OHIO

CITY           SKY/WX    TMP DP  RH WIND       PRES   REMARKS
DEFIANCE       FAIR      84  64  50 CALM      30.02S
FINDLAY        FAIR      85  56  37 CALM      30.01F
TOLEDO EXPRESS FAIR      83  65  54 CALM      30.01F
TOLEDO EXEC    FAIR      86  62  44 CALM      30.02S
LIMA           FAIR      85  65  51 NE6       30.03R
$$

OHZ009>014-019>023-028>033-038-089-271700-
   NORTHEAST OHIO

CITY           SKY/WX    TMP DP  RH WIND       PRES   REMARKS
CLE-HOPKINS    FAIR      88  56  33 W9        30.04S
CLE-LAKEFRONT  FAIR      83  62  49 NW9       30.01F
CUY CO. ARPT   NOT AVBL
LORAIN-ELYRIA  FAIR      85  58  39 CALM      30.03F
ASHTABULA      FAIR      81  63  54 NW5       30.04F
AKRON-CANTON   FAIR      84  55  36 VRB3      30.04S
WOOSTER        FAIR      85  55  35 NE7       30.04S
MANSFIELD      FAIR      85  58  39 VRB7      30.04S
YOUNGSTOWN     FAIR      83  58  42 VRB3      30.04F
$$

OHZ042-051>053-060>062-070>072-077>081-271700-
  SOUTHWEST OHIO

CITY           SKY/WX    TMP DP  RH WIND       PRES   REMARKS
CINC-COVINGTON PTSUNNY   82  73  74 W3        30.03S
CINC-LUNKEN    PTSUNNY   84  74  71 CALM      30.01S HX  91
HAMILTON       FAIR      85  69  58 VRB3      30.02S
DAYTON         FAIR      82  68  62 CALM      30.03S
WRIGHT-PAT AFB MOSUNNY   85  72  66 N5        30.01S HX  91
DAYTON GENERAL FAIR      84  69  60 VRB5      30.02S
WILMINGTON     CLOUDY    81  73  76 E3        30.02S
$$

OHZ036-037-039>041-045>050-054>059-063>069-073>076-082>088-271700-
  CENTRAL AND SOUTHEAST OHIO

CITY           SKY/WX    TMP DP  RH WIND       PRES   REMARKS
COLUMBUS       FAIR      85  66  53 CALM      30.00S
OSU AIRPORT    FAIR      85  65  51 CALM      30.01S
BOLTON FIELD   SUNNY     84  70  61 CALM      30.02S
RICKENBACK AFB FAIR      84  70  61 W5        30.00S
NEWARK         FAIR      86  65  49 CALM      30.00F
MARION         FAIR      85  59  41 SE5       30.03S
LANCASTER      PTSUNNY   83  72  69 CALM      30.02S
ZANESVILLE     PTSUNNY   86  70  58 VRB3      30.01F HX  90
NEW PHILLY     FAIR      89  58  34 N3        30.02F
$$



USA.gov is the U.S. government's official web portal to all federal, state and local government web resources and services.